| time (UTC) | temp F | wind direction | speed MPH | gust MPH | rain 1hr in | rain 24hr in | rain mn in | humidity % | barometer mb |
| 20260510133003 | 68 | 317 | 3.0 | 10.0 | 0.00 | 0.00 | 0.00 | 61 | 1018.7 |
| 20260510132504 | 68 | 194 | 5.0 | 10.0 | 0.00 | 0.00 | 0.00 | 61 | 1018.7 |
| 20260510132003 | 68 | 49 | 3.0 | 8.0 | 0.00 | 0.00 | 0.00 | 62 | 1018.8 |
| 20260510131503 | 69 | 269 | 2.0 | 8.0 | 0.00 | 0.00 | 0.00 | 63 | 1018.9 |
| 20260510131004 | 68 | 252 | 3.0 | 10.0 | 0.00 | 0.00 | 0.00 | 64 | 1018.9 |
| 20260510130004 | 68 | 235 | 4.0 | 12.0 | 0.00 | 0.00 | 0.00 | 63 | 1019.1 |
| 20260510125004 | 69 | 232 | 3.0 | 8.0 | 0.00 | 0.00 | 0.00 | 57 | 1019.1 |
| 20260510123508 | 69 | 218 | 3.0 | 7.0 | 0.00 | 0.00 | 0.00 | 52 | 1019.3 |
| 20260510122510 | 69 | 202 | 4.0 | 16.0 | 0.00 | 0.01 | 0.00 | 50 | 1019.5 |
| 20260510122012 | 69 | 259 | 5.0 | 10.0 | 0.00 | 0.01 | 0.00 | 50 | 1019.3 |
| 20260510121504 | 69 | 205 | 5.0 | 15.0 | 0.00 | 0.01 | 0.00 | 49 | 1019.7 |
| 20260510121005 | 69 | 207 | 5.0 | 15.0 | 0.00 | 0.02 | 0.00 | 47 | 1019.5 |
| 20260510120504 | 69 | 246 | 3.0 | 10.0 | 0.00 | 0.03 | 0.00 | 50 | 1019.6 |
| 20260510115504 | 69 | 131 | 3.0 | 12.0 | 0.00 | 0.03 | 0.00 | 50 | 1019.7 |
| 20260510115004 | 69 | 223 | 4.0 | 13.0 | 0.00 | 0.03 | 0.00 | 49 | 1019.6 |
| 20260510114504 | 70 | 229 | 6.0 | 14.0 | 0.00 | 0.04 | 0.00 | 48 | 1019.8 |
| 20260510114004 | 70 | 172 | 3.0 | 12.0 | 0.00 | 0.04 | 0.00 | 47 | 1019.9 |
| 20260510113504 | 71 | 238 | 6.0 | 12.0 | 0.00 | 0.05 | 0.00 | 46 | 1019.8 |
| 20260510113004 | 71 | 232 | 2.0 | 6.0 | 0.00 | 0.06 | 0.00 | 45 | 1019.8 |
| 20260510112503 | 70 | 233 | 4.0 | 12.0 | 0.00 | 0.07 | 0.00 | 46 | 1019.7 |
| 20260510112004 | 69 | 224 | 2.0 | 6.0 | 0.00 | 0.09 | 0.00 | 46 | 1019.9 |
| 20260510111504 | 70 | 224 | 6.0 | 10.0 | 0.00 | 0.11 | 0.00 | 45 | 1019.7 |
| 20260510111004 | 71 | 185 | 5.0 | 9.0 | 0.00 | 0.14 | 0.00 | 43 | 1019.6 |
| 20260510110503 | 71 | 230 | 3.0 | 6.0 | 0.00 | 0.17 | 0.00 | 43 | 1019.7 |
| 20260510110004 | 70 | 338 | 2.0 | 6.0 | 0.00 | 0.19 | 0.00 | 45 | 1020.1 |
| 20260510105504 | 70 | 176 | 2.0 | 8.0 | 0.00 | 0.21 | 0.00 | 46 | 1020.1 |
| 20260510104504 | 69 | 243 | 3.0 | 9.0 | 0.00 | 0.32 | 0.00 | 46 | 1020.3 |
| 20260510104004 | 69 | 230 | 4.0 | 7.0 | 0.00 | 0.35 | 0.00 | 46 | 1020.2 |
| 20260510103503 | 69 | 196 | 5.0 | 9.0 | 0.00 | 0.37 | 0.00 | 48 | 1020.3 |
| 20260510102503 | 69 | 226 | 5.0 | 10.0 | 0.00 | 0.39 | 0.00 | 48 | 1020.5 |
| 20260510102004 | 69 | 234 | 4.0 | 10.0 | 0.00 | 0.41 | 0.00 | 49 | 1020.7 |
| 20260510101504 | 68 | 243 | 3.0 | 8.0 | 0.00 | 0.42 | 0.00 | 48 | 1020.8 |
| 20260510101004 | 68 | 243 | 2.0 | 12.0 | 0.00 | 0.43 | 0.00 | 48 | 1020.7 |
| 20260510100504 | 68 | 207 | 5.0 | 13.0 | 0.00 | 0.45 | 0.00 | 48 | 1021.1 |
| 20260510100003 | 68 | 245 | 5.0 | 9.0 | 0.00 | 0.46 | 0.00 | 48 | 1021.1 |
| 20260510095503 | 68 | 218 | 3.0 | 9.0 | 0.00 | 0.47 | 0.00 | 49 | 1020.9 |
| 20260510095004 | 67 | 279 | 2.0 | 8.0 | 0.00 | 0.48 | 0.00 | 49 | 1020.9 |
| 20260510094505 | 67 | 221 | 5.0 | 10.0 | 0.00 | 0.48 | 0.00 | 49 | 1021.1 |
| 20260510094004 | 67 | 220 | 3.0 | 8.0 | 0.00 | 0.49 | 0.00 | 49 | 1021.0 |
| 20260510093004 | 67 | 207 | 5.0 | 12.0 | 0.00 | 0.50 | 0.00 | 49 | 1021.0 |
| 20260510092504 | 66 | 202 | 4.0 | 9.0 | 0.00 | 0.50 | 0.00 | 49 | 1021.0 |
| 20260510092005 | 66 | 247 | 5.0 | 13.0 | 0.00 | 0.51 | 0.00 | 50 | 1021.1 |
| 20260510091503 | 66 | 224 | 6.0 | 12.0 | 0.00 | 0.51 | 0.00 | 49 | 1021.3 |
| 20260510091004 | 66 | 243 | 4.0 | 16.0 | 0.00 | 0.56 | 0.00 | 50 | 1021.2 |
| 20260510090504 | 66 | 248 | 3.0 | 8.0 | 0.00 | 0.60 | 0.00 | 51 | 1021.4 |
| 20260510090004 | 66 | 262 | 5.0 | 13.0 | 0.00 | 0.60 | 0.00 | 49 | 1021.1 |
| 20260510083004 | 65 | 261 | 4.0 | 7.0 | 0.00 | 0.78 | 0.00 | 53 | 1021.5 |
| 20260510082004 | 65 | 219 | 1.0 | 3.0 | 0.00 | 0.82 | 0.00 | 54 | 1021.7 |
| 20260510081503 | 65 | 197 | 1.0 | 3.0 | 0.00 | 0.87 | 0.00 | 57 | 1021.5 |
| 20260510081003 | 64 | 225 | 1.0 | 3.0 | 0.00 | 0.88 | 0.00 | 61 | 1021.5 |
| 20260510080504 | 64 | 228 | 2.0 | 3.0 | 0.00 | 0.91 | 0.00 | 60 | 1021.5 |
| 20260510080004 | 64 | 120 | 1.0 | 3.0 | 0.00 | 0.96 | 0.00 | 60 | 1021.7 |
| 20260510075504 | 64 | 140 | 0.0 | 1.0 | 0.00 | 1.02 | 0.00 | 63 | 1021.6 |
| 20260510075003 | 64 | 123 | 1.0 | 2.0 | 0.00 | 1.04 | 0.00 | 61 | 1021.8 |
| 20260510074504 | 63 | 160 | 1.0 | 1.0 | 0.00 | 1.06 | 0.00 | 62 | 1021.9 |
| 20260510074005 | 63 | 225 | 0.0 | 1.0 | 0.00 | 1.08 | 0.00 | 64 | 1022.0 |
| 20260510073503 | 64 | 225 | 0.0 | 1.0 | 0.00 | 1.10 | 0.00 | 61 | 1021.8 |
| 20260510072504 | 61 | 225 | 1.0 | 2.0 | 0.00 | 1.12 | 0.00 | 70 | 1022.3 |
| 20260510072003 | 61 | 129 | 0.0 | 2.0 | 0.00 | 1.13 | 0.00 | 71 | 1022.1 |
| 20260510071504 | 62 | 133 | 1.0 | 2.0 | 0.00 | 1.14 | 0.00 | 70 | 1022.0 |
| 20260510071004 | 61 | 225 | 0.0 | 0.0 | 0.00 | 1.16 | 0.00 | 70 | 1022.2 |
| 20260510070004 | 61 | 225 | 0.0 | 1.0 | 0.00 | 1.19 | 0.00 | 71 | 1022.3 |
| 20260510065504 | 58 | 225 | 0.0 | 1.0 | 0.00 | 1.21 | 0.00 | 77 | 1022.8 |
| 20260510065004 | 58 | 225 | 1.0 | 1.0 | 0.00 | 1.22 | 0.00 | 78 | 1022.9 |
| 20260510064503 | 55 | 225 | 0.0 | 1.0 | 0.00 | 1.22 | 0.00 | 82 | 1023.0 |
| 20260510063504 | 55 | 201 | 1.0 | 3.0 | 0.00 | 1.22 | 0.00 | 82 | 1023.0 |
| 20260510063004 | 55 | 235 | 1.0 | 3.0 | 0.00 | 1.23 | 0.00 | 82 | 1023.1 |
| 20260510062504 | 54 | 242 | 0.0 | 0.0 | 0.00 | 1.23 | 0.00 | 84 | 1023.1 |
| 20260510062004 | 53 | 242 | 0.0 | 0.0 | 0.00 | 1.23 | 0.00 | 84 | 1023.2 |
| 20260510061504 | 52 | 242 | 0.0 | 0.0 | 0.00 | 1.23 | 0.00 | 85 | 1023.3 |
| 20260510061003 | 52 | 242 | 0.0 | 1.0 | 0.00 | 1.23 | 0.00 | 86 | 1023.4 |
| 20260510060504 | 52 | 242 | 0.0 | 0.0 | 0.00 | 1.23 | 0.00 | 87 | 1023.4 |
| 20260510055504 | 51 | 242 | 0.0 | 1.0 | 0.00 | 1.23 | 0.00 | 87 | 1023.5 |
| 20260510054504 | 51 | 242 | 0.0 | 1.0 | 0.00 | 1.23 | 0.00 | 87 | 1023.4 |
| 20260510054004 | 51 | 242 | 0.0 | 1.0 | 0.00 | 1.23 | 0.00 | 87 | 1023.4 |
| 20260510053503 | 51 | 242 | 1.0 | 2.0 | 0.00 | 1.23 | 0.00 | 87 | 1023.5 |
| 20260510053004 | 50 | 242 | 1.0 | 1.0 | 0.00 | 1.23 | 0.00 | 88 | 1023.2 |
| 20260510052504 | 50 | 242 | 1.0 | 2.0 | 0.00 | 1.23 | 0.00 | 88 | 1023.4 |
| 20260510052004 | 50 | 242 | 1.0 | 2.0 | 0.00 | 1.23 | 0.00 | 89 | 1023.5 |
| 20260510051503 | 50 | 242 | 0.0 | 1.0 | 0.00 | 1.23 | 0.00 | 90 | 1023.3 |
| 20260510051003 | 49 | 242 | 0.0 | 2.0 | 0.00 | 1.23 | 0.00 | 90 | 1023.3 |
| 20260510050504 | 49 | 203 | 0.0 | 1.0 | 0.00 | 1.23 | 0.00 | 90 | 1023.4 |
| 20260510050004 | 49 | 203 | 0.0 | 0.0 | 0.00 | 1.23 | 0.00 | 90 | 1023.4 |
| 20260510045504 | 49 | 203 | 0.0 | 0.0 | 0.00 | 1.23 | 0.00 | 90 | 1023.3 |
| 20260510045004 | 49 | 203 | 0.0 | 1.0 | 0.00 | 1.23 | 0.00 | 90 | 1023.6 |
| 20260510044505 | 49 | 215 | 1.0 | 2.0 | 0.00 | 1.23 | 0.00 | 90 | 1023.5 |
| 20260510043504 | 50 | 242 | 0.0 | 0.0 | 0.00 | 1.23 | 0.00 | 90 | 1023.2 |
| 20260510043004 | 50 | 242 | 0.0 | 1.0 | 0.00 | 1.23 | 0.00 | 90 | 1023.2 |
| 20260510042005 | 50 | 242 | 1.0 | 1.0 | 0.00 | 1.23 | 0.00 | 91 | 1023.1 |
| 20260510041504 | 50 | 242 | 0.0 | 0.0 | 0.00 | 1.23 | 0.00 | 91 | 1022.9 |
| 20260510041004 | 49 | 242 | 0.0 | 1.0 | 0.00 | 1.23 | 0.00 | 91 | 1023.0 |
| 20260510040004 | 50 | 242 | 0.0 | 0.0 | 0.00 | 1.23 | 0.00 | 91 | 1023.3 |
| 20260510035504 | 50 | 242 | 0.0 | 0.0 | 0.00 | 1.23 | 0.00 | 91 | 1022.8 |
| 20260510035004 | 50 | 242 | 0.0 | 1.0 | 0.00 | 1.23 | 0.00 | 92 | 1022.8 |
| 20260510034503 | 50 | 242 | 1.0 | 1.0 | 0.00 | 1.23 | 0.00 | 92 | 1022.8 |
| 20260510034003 | 50 | 242 | 0.0 | 1.0 | 0.00 | 1.23 | 0.00 | 92 | 1022.8 |
| 20260510033003 | 50 | 242 | 0.0 | 1.0 | 0.00 | 1.23 | 0.00 | 92 | 1022.9 |
| 20260510032004 | 50 | 242 | 0.0 | 1.0 | 0.00 | 1.23 | 0.00 | 92 | 1022.8 |
| 20260510031503 | 50 | 226 | 2.0 | 2.0 | 0.00 | 1.23 | 0.00 | 92 | 1022.8 |
| 20260510031003 | 50 | 222 | 1.0 | 1.0 | 0.00 | 1.23 | 0.00 | 93 | 1022.8 |
| 20260510030504 | 50 | 222 | 1.0 | 1.0 | 0.00 | 1.23 | 0.00 | 93 | 1022.8 |
| 20260510030004 | 50 | 221 | 0.0 | 1.0 | 0.00 | 1.23 | 0.00 | 93 | 1022.8 |
| 20260510025504 | 50 | 221 | 0.0 | 1.0 | 0.00 | 1.23 | 0.00 | 92 | 1022.8 |
| 20260510025003 | 50 | 222 | 1.0 | 2.0 | 0.00 | 1.23 | 0.00 | 92 | 1022.9 |
| 20260510024504 | 50 | 232 | 1.0 | 2.0 | 0.00 | 1.23 | 0.00 | 92 | 1022.9 |
| 20260510023504 | 51 | 232 | 1.0 | 1.0 | 0.00 | 1.23 | 0.00 | 93 | 1022.8 |
| 20260510023004 | 51 | 232 | 1.0 | 1.0 | 0.00 | 1.23 | 0.00 | 93 | 1023.0 |
| 20260510022504 | 51 | 232 | 0.0 | 1.0 | 0.00 | 1.23 | 0.00 | 93 | 1022.8 |
| 20260510022004 | 51 | 232 | 0.0 | 1.0 | 0.00 | 1.23 | 0.00 | 93 | 1022.7 |
| 20260510021004 | 51 | 241 | 0.0 | 0.0 | 0.00 | 1.23 | 0.00 | 93 | 1022.7 |
| 20260510020503 | 51 | 241 | 0.0 | 0.0 | 0.00 | 1.23 | 0.00 | 92 | 1022.9 |
| 20260510020004 | 51 | 241 | 0.0 | 1.0 | 0.00 | 1.23 | 0.00 | 93 | 1022.7 |
| 20260510015004 | 51 | 241 | 1.0 | 2.0 | 0.00 | 1.23 | 0.00 | 92 | 1022.5 |
| 20260510014504 | 51 | 241 | 1.0 | 2.0 | 0.00 | 1.23 | 0.00 | 92 | 1022.7 |
| 20260510014004 | 51 | 218 | 0.0 | 1.0 | 0.00 | 1.23 | 0.00 | 92 | 1022.5 |
| 20260510013503 | 51 | 217 | 1.0 | 2.0 | 0.00 | 1.23 | 0.00 | 92 | 1022.7 |
| 20260510013005 | 51 | 195 | 0.0 | 3.0 | 0.00 | 1.23 | 0.00 | 92 | 1022.5 |
| 20260510012504 | 52 | 225 | 0.0 | 1.0 | 0.00 | 1.23 | 0.00 | 92 | 1022.5 |
| 20260510012004 | 52 | 226 | 0.0 | 1.0 | 0.00 | 1.23 | 0.00 | 92 | 1022.6 |
| 20260510011504 | 52 | 210 | 1.0 | 2.0 | 0.00 | 1.23 | 0.00 | 92 | 1022.7 |
| 20260510010504 | 52 | 207 | 1.0 | 2.0 | 0.00 | 1.23 | 0.00 | 92 | 1022.6 |
| 20260510010004 | 52 | 220 | 0.0 | 1.0 | 0.00 | 1.23 | 0.00 | 92 | 1022.4 |
| 20260510005504 | 52 | 225 | 0.0 | 1.0 | 0.00 | 1.23 | 0.00 | 92 | 1022.4 |
| 20260510005005 | 52 | 219 | 1.0 | 1.0 | 0.00 | 1.23 | 0.00 | 91 | 1022.8 |
| 20260510004504 | 52 | 213 | 1.0 | 1.0 | 0.00 | 1.23 | 0.00 | 91 | 1022.6 |
| 20260510004004 | 52 | 207 | 0.0 | 0.0 | 0.00 | 1.23 | 0.00 | 91 | 1022.9 |
| 20260510003505 | 53 | 207 | 0.0 | 2.0 | 0.00 | 1.23 | 0.00 | 91 | 1023.0 |
| 20260510003004 | 53 | 218 | 1.0 | 2.0 | 0.00 | 1.23 | 0.00 | 90 | 1022.8 |
| 20260510002504 | 53 | 238 | 0.0 | 1.0 | 0.00 | 1.23 | 0.00 | 90 | 1022.9 |
| 20260510002004 | 53 | 237 | 1.0 | 2.0 | 0.00 | 1.23 | 0.00 | 89 | 1022.9 |
| 20260510001503 | 53 | 267 | 1.0 | 2.0 | 0.00 | 1.23 | 0.00 | 89 | 1023.1 |
| 20260510001004 | 53 | 216 | 0.0 | 1.0 | 0.00 | 1.23 | 0.00 | 89 | 1022.7 |
| 20260510000504 | 54 | 216 | 0.0 | 1.0 | 0.00 | 1.23 | 0.00 | 89 | 1023.0 |
| 20260510000004 | 54 | 215 | 1.0 | 2.0 | 0.00 | 1.23 | 0.00 | 88 | 1023.0 |
| 20260509235504 | 54 | 234 | 1.0 | 2.0 | 0.00 | 1.23 | 0.00 | 88 | 1023.1 |
| 20260509235003 | 54 | 237 | 2.0 | 2.0 | 0.00 | 1.23 | 0.00 | 88 | 1023.1 |
| 20260509234504 | 54 | 239 | 1.0 | 3.0 | 0.00 | 1.23 | 0.00 | 88 | 1023.1 |
| 20260509234003 | 54 | 241 | 2.0 | 5.0 | 0.00 | 1.23 | 0.00 | 88 | 1023.2 |
| 20260509233004 | 55 | 211 | 1.0 | 2.0 | 0.00 | 1.23 | 0.00 | 88 | 1023.1 |
| 20260509232503 | 55 | 196 | 0.0 | 1.0 | 0.00 | 1.23 | 0.00 | 87 | 1023.1 |
| 20260509232004 | 55 | 54 | 1.0 | 1.0 | 0.00 | 1.23 | 0.00 | 87 | 1023.0 |
| 20260509231503 | 55 | 52 | 1.0 | 2.0 | 0.00 | 1.23 | 0.00 | 87 | 1023.2 |
| 20260509231004 | 55 | 4 | 0.0 | 1.0 | 0.00 | 1.23 | 0.00 | 87 | 1023.1 |
| 20260509230504 | 55 | 4 | 1.0 | 3.0 | 0.00 | 1.23 | 0.00 | 86 | 1022.7 |
| 20260509225504 | 56 | 225 | 0.0 | 5.0 | 0.00 | 1.23 | 0.00 | 84 | 1022.7 |
| 20260509224504 | 56 | 234 | 3.0 | 6.0 | 0.00 | 1.23 | 0.00 | 84 | 1022.7 |
| 20260509223504 | 55 | 222 | 1.0 | 2.0 | 0.00 | 1.23 | 0.00 | 88 | 1022.6 |
| 20260509223003 | 55 | 227 | 1.0 | 2.0 | 0.00 | 1.23 | 0.00 | 89 | 1022.7 |
| 20260509222504 | 55 | 56 | 0.0 | 0.0 | 0.00 | 1.23 | 0.00 | 90 | 1022.8 |
| 20260509222005 | 55 | 56 | 0.0 | 0.0 | 0.00 | 1.23 | 0.00 | 89 | 1022.8 |
| 20260509221503 | 55 | 56 | 0.0 | 0.0 | 0.00 | 1.23 | 0.00 | 89 | 1022.8 |
| 20260509220504 | 56 | 56 | 0.0 | 0.0 | 0.00 | 1.23 | 0.00 | 88 | 1022.8 |
| 20260509220004 | 56 | 56 | 0.0 | 0.0 | 0.00 | 1.23 | 0.00 | 88 | 1022.9 |
| 20260509215504 | 56 | 56 | 0.0 | 0.0 | 0.00 | 1.23 | 1.23 | 88 | 1022.7 |
| 20260509215005 | 57 | 56 | 0.0 | 1.0 | 0.00 | 1.23 | 1.23 | 87 | 1022.6 |
| 20260509214504 | 57 | 56 | 0.0 | 1.0 | 0.00 | 1.23 | 1.23 | 87 | 1022.5 |
| 20260509214004 | 57 | 56 | 0.0 | 1.0 | 0.00 | 1.23 | 1.23 | 86 | 1022.4 |
| 20260509213504 | 57 | 56 | 0.0 | 2.0 | 0.00 | 1.23 | 1.23 | 85 | 1022.5 |
| 20260509213004 | 58 | 61 | 1.0 | 2.0 | 0.00 | 1.23 | 1.23 | 85 | 1022.5 |
| 20260509212503 | 58 | 61 | 0.0 | 1.0 | 0.00 | 1.23 | 1.23 | 85 | 1022.6 |
| 20260509212004 | 58 | 61 | 0.0 | 3.0 | 0.00 | 1.23 | 1.23 | 85 | 1022.6 |
| 20260509211503 | 58 | 77 | 2.0 | 3.0 | 0.00 | 1.23 | 1.23 | 85 | 1022.4 |
| 20260509211004 | 58 | 97 | 1.0 | 1.0 | 0.00 | 1.23 | 1.23 | 85 | 1022.6 |
| 20260509210504 | 58 | 98 | 0.0 | 2.0 | 0.00 | 1.23 | 1.23 | 84 | 1022.4 |
| 20260509210004 | 58 | 100 | 0.0 | 1.0 | 0.00 | 1.23 | 1.23 | 84 | 1022.2 |
| 20260509205503 | 58 | 100 | 2.0 | 3.0 | 0.00 | 1.23 | 1.23 | 83 | 1022.2 |
| 20260509204504 | 58 | 245 | 1.0 | 2.0 | 0.00 | 1.23 | 1.23 | 83 | 1021.9 |
| 20260509204004 | 58 | 262 | 1.0 | 5.0 | 0.00 | 1.23 | 1.23 | 82 | 1022.1 |
| 20260509203504 | 58 | 236 | 2.0 | 6.0 | 0.00 | 1.23 | 1.23 | 82 | 1021.9 |
| 20260509203004 | 58 | 243 | 2.0 | 9.0 | 0.00 | 1.23 | 1.23 | 82 | 1021.7 |
| 20260509202504 | 58 | 224 | 4.0 | 7.0 | 0.00 | 1.23 | 1.23 | 82 | 1021.9 |
| 20260509202003 | 58 | 250 | 5.0 | 9.0 | 0.00 | 1.23 | 1.23 | 82 | 1021.6 |
| 20260509201504 | 58 | 244 | 4.0 | 9.0 | 0.00 | 1.23 | 1.23 | 82 | 1021.7 |
| 20260509200504 | 58 | 249 | 4.0 | 9.0 | 0.00 | 1.23 | 1.23 | 83 | 1021.7 |
| 20260509200004 | 58 | 231 | 5.0 | 10.0 | 0.00 | 1.23 | 1.23 | 83 | 1021.4 |
| 20260509195504 | 58 | 240 | 3.0 | 8.0 | 0.00 | 1.23 | 1.23 | 83 | 1021.6 |
| 20260509195004 | 58 | 229 | 3.0 | 9.0 | 0.00 | 1.23 | 1.23 | 83 | 1021.3 |
| 20260509194503 | 58 | 227 | 4.0 | 10.0 | 0.00 | 1.23 | 1.23 | 83 | 1021.3 |
| 20260509194004 | 58 | 252 | 5.0 | 10.0 | 0.00 | 1.23 | 1.23 | 84 | 1021.3 |
| 20260509193504 | 58 | 229 | 1.0 | 5.0 | 0.00 | 1.23 | 1.23 | 85 | 1021.2 |
| 20260509193004 | 58 | 213 | 2.0 | 5.0 | 0.00 | 1.23 | 1.23 | 84 | 1021.0 |
| 20260509192505 | 58 | 226 | 3.0 | 9.0 | 0.00 | 1.23 | 1.23 | 84 | 1021.0 |
| 20260509192004 | 58 | 251 | 6.0 | 9.0 | 0.00 | 1.23 | 1.23 | 84 | 1020.9 |
| 20260509191504 | 58 | 241 | 2.0 | 5.0 | 0.00 | 1.23 | 1.23 | 86 | 1020.9 |
| 20260509191003 | 58 | 248 | 2.0 | 6.0 | 0.00 | 1.23 | 1.23 | 86 | 1020.9 |
| 20260509190004 | 58 | 216 | 3.0 | 7.0 | 0.00 | 1.23 | 1.23 | 85 | 1020.9 |
| 20260509185503 | 58 | 237 | 2.0 | 6.0 | 0.00 | 1.23 | 1.23 | 84 | 1020.6 |
| 20260509184504 | 58 | 229 | 2.0 | 6.0 | 0.00 | 1.23 | 1.23 | 87 | 1020.8 |
| 20260509183504 | 58 | 114 | 2.0 | 7.0 | 0.00 | 1.23 | 1.23 | 87 | 1020.3 |
| 20260509183003 | 59 | 237 | 2.0 | 7.0 | 0.00 | 1.23 | 1.23 | 88 | 1020.1 |
| 20260509182504 | 59 | 89 | 0.0 | 3.0 | 0.00 | 1.23 | 1.23 | 89 | 1020.1 |
| 20260509182004 | 59 | 100 | 1.0 | 3.0 | 0.00 | 1.23 | 1.23 | 89 | 1019.9 |
| 20260509181504 | 59 | 49 | 1.0 | 3.0 | 0.00 | 1.23 | 1.23 | 89 | 1019.9 |
| 20260509180504 | 59 | 32 | 2.0 | 3.0 | 0.00 | 1.23 | 1.23 | 88 | 1019.8 |
| 20260509175004 | 60 | 46 | 2.0 | 5.0 | 0.00 | 1.23 | 1.23 | 86 | 1019.7 |
| 20260509174504 | 60 | 60 | 3.0 | 6.0 | 0.00 | 1.23 | 1.23 | 84 | 1019.5 |
| 20260509174004 | 61 | 351 | 0.0 | 3.0 | 0.00 | 1.23 | 1.23 | 83 | 1019.4 |
| 20260509173504 | 61 | 301 | 1.0 | 5.0 | 0.00 | 1.23 | 1.23 | 81 | 1019.2 |
| 20260509173004 | 61 | 232 | 1.0 | 2.0 | 0.00 | 1.23 | 1.23 | 77 | 1019.4 |
| 20260509172005 | 61 | 47 | 2.0 | 3.0 | 0.00 | 1.23 | 1.23 | 77 | 1019.2 |
| 20260509171503 | 61 | 53 | 1.0 | 3.0 | 0.00 | 1.23 | 1.23 | 77 | 1019.2 |
| 20260509171004 | 61 | 37 | 2.0 | 5.0 | 0.00 | 1.23 | 1.23 | 76 | 1019.2 |
| 20260509170504 | 62 | 40 | 2.0 | 6.0 | 0.00 | 1.23 | 1.23 | 76 | 1019.0 |
| 20260509170004 | 62 | 39 | 3.0 | 6.0 | 0.00 | 1.23 | 1.23 | 76 | 1018.7 |
| 20260509165503 | 63 | 33 | 1.0 | 6.0 | 0.00 | 1.23 | 1.23 | 74 | 1018.7 |
| 20260509164504 | 63 | 1 | 1.0 | 3.0 | 0.00 | 1.23 | 1.23 | 73 | 1018.6 |
| 20260509164004 | 64 | 92 | 1.0 | 2.0 | 0.00 | 1.23 | 1.23 | 72 | 1018.7 |
| 20260509163503 | 63 | 18 | 1.0 | 2.0 | 0.00 | 1.23 | 1.23 | 73 | 1018.7 |
| 20260509162504 | 62 | 44 | 2.0 | 6.0 | 0.00 | 1.23 | 1.23 | 76 | 1018.6 |
| 20260509162004 | 62 | 55 | 3.0 | 6.0 | 0.00 | 1.23 | 1.23 | 76 | 1018.4 |
| 20260509161504 | 63 | 55 | 2.0 | 6.0 | 0.00 | 1.23 | 1.23 | 77 | 1018.5 |
| 20260509161004 | 62 | 33 | 1.0 | 5.0 | 0.00 | 1.23 | 1.23 | 77 | 1018.6 |
| 20260509160504 | 62 | 38 | 2.0 | 6.0 | 0.00 | 1.23 | 1.23 | 77 | 1018.6 |
| 20260509160004 | 63 | 56 | 3.0 | 6.0 | 0.00 | 1.23 | 1.23 | 77 | 1018.8 |
| 20260509155503 | 62 | 284 | 1.0 | 3.0 | 0.00 | 1.23 | 1.23 | 78 | 1018.8 |
| 20260509154504 | 60 | 34 | 2.0 | 5.0 | 0.00 | 1.23 | 1.23 | 82 | 1019.0 |
| 20260509154004 | 60 | 52 | 3.0 | 6.0 | 0.00 | 1.23 | 1.23 | 83 | 1018.9 |
| 20260509153504 | 60 | 42 | 3.0 | 9.0 | 0.00 | 1.23 | 1.23 | 81 | 1019.3 |
| 20260509153003 | 60 | 40 | 3.0 | 6.0 | 0.00 | 1.23 | 1.23 | 81 | 1019.1 |
| 20260509152504 | 60 | 37 | 3.0 | 7.0 | 0.00 | 1.23 | 1.23 | 80 | 1019.0 |
| 20260509152004 | 60 | 41 | 3.0 | 7.0 | 0.00 | 1.23 | 1.23 | 80 | 1018.8 |
| 20260509151504 | 60 | 212 | 2.0 | 7.0 | 0.00 | 1.23 | 1.23 | 81 | 1019.0 |
| 20260509151003 | 60 | 62 | 2.0 | 3.0 | 0.00 | 1.23 | 1.23 | 82 | 1018.7 |
| 20260509150003 | 61 | 36 | 2.0 | 6.0 | 0.00 | 1.23 | 1.23 | 83 | 1018.5 |
| 20260509145504 | 61 | 52 | 2.0 | 7.0 | 0.00 | 1.23 | 1.23 | 82 | 1018.7 |
| 20260509145003 | 61 | 60 | 2.0 | 5.0 | 0.00 | 1.23 | 1.23 | 81 | 1018.5 |
| 20260509144504 | 60 | 47 | 1.0 | 6.0 | 0.00 | 1.23 | 1.23 | 82 | 1018.8 |
| 20260509144004 | 59 | 23 | 3.0 | 6.0 | 0.00 | 1.23 | 1.23 | 82 | 1018.8 |
| 20260509143504 | 60 | 42 | 2.0 | 5.0 | 0.00 | 1.23 | 1.23 | 81 | 1018.8 |
| 20260509143004 | 60 | 49 | 2.0 | 5.0 | 0.00 | 1.23 | 1.23 | 80 | 1018.8 |
| 20260509142504 | 60 | 37 | 2.0 | 3.0 | 0.00 | 1.23 | 1.23 | 80 | 1018.6 |
| 20260509142003 | 60 | 37 | 2.0 | 6.0 | 0.00 | 1.23 | 1.23 | 81 | 1018.5 |
| 20260509141503 | 59 | 23 | 1.0 | 3.0 | 0.00 | 1.23 | 1.23 | 84 | 1018.8 |
| 20260509141004 | 58 | 40 | 1.0 | 3.0 | 0.00 | 1.23 | 1.23 | 90 | 1018.8 |
| 20260509135504 | 56 | 34 | 1.0 | 3.0 | 0.00 | 1.23 | 1.23 | 96 | 1019.4 |
| 20260509135004 | 55 | 39 | 3.0 | 5.0 | 0.00 | 1.23 | 1.23 | 96 | 1019.6 |
| 20260509134504 | 55 | 58 | 2.0 | 7.0 | 0.00 | 1.23 | 1.23 | 97 | 1019.6 |
| 20260509134004 | 56 | 30 | 2.0 | 7.0 | 0.00 | 1.23 | 1.23 | 97 | 1019.4 |